Wind_Speed
3 3 3 3 3 3 4 4 4 4 4 4 4 3 3 3 3 2 3 3 3 4 4 5 5 6 7 7 8 8 9 10 11 12 12 11 8 5 3 3 3 1 0 1 1 0 1 2 2 3 3 2 4 5 6 5 5 3 2 3 1 3 2 4 6 6 3 1 1 3 5 3 2 5 8 8 4 3 7 9 4 2 1 3 8 11 13 12
5 4 4 4 4 4 4 4 4 4 4 4 4 4 3 3 3 4 4 4 4 5 5 6 7 7 8 8 9 10 10 12 13 12 10 7 2 3 6 6 3 1 2 3 2 2 2 2 2 3 3 3 4 4 4 4 6 3 3 3 1 4 3 3 6 7 3 1 2 3 4 3 2 6 6 5 6 6 7 7 2 2 2 5 9 9 10 10
6 6 6 6 6 5 5 5 5 5 5 5 5 4 4 4 4 5 5 5 5 6 6 7 8 8 9 9 10 11 12 13 11 7 3 3 7 9 8 6 4 3 4 4 3 3 3 2 1 2 3 4 4 4 4 4 4 2 3 2 3 5 3 2 4 6 3 3 3 2 2 3 3 4 3 3 9 10 3 1 1 4 7 6 6 4 4 6
8 8 8 8 7 7 7 6 6 6 6 5 5 5 5 6 6 6 6 6 7 7 7 8 8 9 9 11 12 12 13 11 5 3 6 10 10 9 7 5 4 5 5 5 4 3 3 1 1 2 2 3 4 3 4 5 3 1 3 2 4 3 1 1 1 3 4 4 3 2 3 5 2 3 4 3 5 8 1 2 3 9 8 5 4 3 3 3
10 9 9 9 9 8 8 8 8 8 7 7 7 7 7 7 7 7 7 7 7 8 8 9 9 10 11 11 12 12 10 5 3 6 8 9 7 5 3 3 4 6 6 6 4 3 3 2 0 1 2 2 4 3 2 4 3 2 1 3 5 5 2 1 0 1 4 4 3 3 3 3 2 3 6 6 4 5 4 3 6 8 4 2 3 2 2 2
11 11 10 10 10 10 10 10 9 9 9 8 8 9 9 9 8 8 8 8 8 9 9 10 11 11 12 11 11 10 6 2 1 3 5 5 3 3 2 3 5 7 7 6 4 3 4 2 0 1 3 2 2 3 2 2 2 0 1 3 4 5 3 3 2 3 5 5 5 4 3 3 4 6 8 9 9 9 9 8 6 4 3 0 1 2 2 3
13 12 12 11 11 11 12 11 11 10 10 10 10 10 10 10 9 9 9 9 9 10 11 11 11 11 10 10 9 8 6 5 4 4 5 6 6 7 7 7 7 8 7 6 4 4 4 3 1 2 3 3 2 2 3 1 2 1 1 2 2 5 5 4 5 7 9 9 9 7 6 6 6 5 5 7 9 10 9 5 3 5 4 2 1 2 3 4
14 14 13 13 12 13 13 13 12 12 12 12 11 11 11 11 10 10 10 10 11 11 11 11 10 10 9 9 8 8 9 8 7 7 8 9 10 11 11 10 9 8 6 5 3 4 4 3 3 2 2 1 2 3 2 1 1 2 2 2 1 4 6 7 10 12 12 12 10 8 8 8 8 6 4 4 7 7 6 5 5 5 2 1 2 2 2 4
16 16 15 14 14 14 14 14 14 13 13 13 12 12 12 12 11 11 11 11 11 11 10 10 9 9 9 9 8 7 7 6 5 6 7 9 10 11 12 11 10 8 5 3 3 4 4 3 4 3 1 1 4 3 3 1 2 2 2 3 4 7 10 11 12 11 11 11 9 6 5 5 6 5 3 4 7 7 7 8 6 4 2 3 3 3 2 3
17 17 17 16 16 16 15 15 15 15 14 14 13 13 13 12 12 11 11 11 11 10 10 10 9 9 9 9 6 3 5 5 5 5 5 6 7 8 10 10 10 7 5 3 2 3 4 3 2 3 2 2 4 3 4 2 1 1 2 6 7 10 13 12 12 12 12 12 9 5 3 2 5 4 3 6 9 10 10 9 7 5 4 3 5 5 5 3
18 18 18 18 18 17 17 16 16 16 15 15 14 14 13 12 12 12 11 11 11 10 10 10 9 9 9 8 6 5 6 7 6 6 6 6 6 6 7 8 8 7 6 4 3 2 3 3 2 3 2 2 3 2 3 2 1 1 4 7 9 10 13 11 11 12 8 6 4 3 2 1 4 3 2 8 13 12 11 9 6 5 4 3 6 7 6 6
19 19 20 20 19 19 18 18 17 16 16 15 14 14 13 12 12 12 12 11 11 11 10 10 9 9 9 10 12 11 11 11 11 10 10 9 8 7 7 7 7 7 7 5 4 3 3 4 4 3 2 4 3 1 2 2 1 2 4 4 8 9 9 8 4 3 1 1 2 1 1 3 1 2 2 9 14 11 9 8 5 4 4 5 7 7 7 7
20 20 21 21 20 20 19 19 18 17 17 15 14 14 13 13 13 12 12 11 11 11 10 10 9 10 9 10 13 12 11 12 12 13 14 12 11 10 9 8 8 8 8 6 5 4 4 5 5 4 4 5 3 2 3 2 2 2 3 1 5 7 5 4 3 2 2 2 1 2 2 5 4 2 3 8 11 9 8 7 5 5 6 7 7 7 6 7
22 21 21 21 21 21 20 20 19 18 17 15 14 14 14 13 13 13 12 12 11 11 10 10 10 9 8 10 12 12 13 13 13 13 14 13 12 10 9 9 9 9 8 7 5 5 4 5 6 6 5 4 4 5 2 4 3 2 1 2 2 2 5 5 4 3 3 2 1 4 1 4 4 3 2 8 11 9 7 7 6 7 7 7 6 6 6 6
24 22 21 21 21 21 21 20 19 18 17 15 14 14 14 13 13 13 12 12 12 11 11 10 9 8 8 11 12 12 13 14 16 15 14 13 12 10 10 9 9 9 8 7 6 5 5 6 6 6 6 6 6 5 2 4 3 2 1 3 2 1 5 7 5 1 1 1 2 4 2 4 4 4 2 8 13 11 9 9 8 8 7 6 6 5 6 6
25 23 21 21 21 21 21 21 20 18 16 15 14 14 13 13 13 13 13 12 12 11 11 9 9 7 6 9 11 11 12 13 14 14 14 13 12 10 10 9 9 8 7 6 6 6 7 7 6 6 6 6 5 4 3 3 3 3 0 3 3 2 3 5 3 1 1 1 2 2 2 3 2 5 2 6 13 13 11 10 8 8 6 6 5 5 5 6
24 23 22 21 21 21 21 21 20 18 16 14 14 14 14 13 13 13 13 12 12 12 10 8 7 6 8 11 12 11 12 12 12 12 12 12 12 11 10 10 9 8 7 7 7 7 8 7 6 5 3 3 3 4 3 2 4 3 1 2 4 3 2 3 2 2 3 2 1 3 1 4 3 7 2 3 10 12 11 10 9 8 6 4 4 4 4 5
23 23 22 21 21 21 21 20 20 18 16 14 14 14 14 13 13 13 13 13 12 9 8 9 7 2 8 13 11 10 10 11 12 12 11 11 11 11 11 10 9 9 9 8 7 8 7 5 5 2 3 2 2 5 3 5 4 4 3 2 3 3 3 4 3 2 4 3 2 3 3 8 7 7 3 2 8 10 11 11 9 7 5 3 2 3 3 4
23 22 22 22 22 22 21 20 19 17 15 14 15 14 13 12 12 13 14 13 11 6 4 8 10 4 3 6 7 8 8 9 10 11 11 11 11 12 11 9 9 11 10 6 5 7 6 4 4 1 1 4 6 8 9 8 6 6 6 4 4 4 4 4 4 4 2 3 4 4 5 9 10 6 1 1 6 9 10 9 7 5 3 2 2 2 3 3
23 22 22 23 23 22 21 20 19 17 15 15 15 13 11 9 7 9 12 16 18 16 12 11 12 11 8 5 5 6 6 7 8 10 11 10 12 13 11 10 9 8 6 4 3 4 5 3 3 6 7 9 11 11 8 4 6 6 5 4 4 5 5 3 2 4 1 1 5 5 6 9 11 7 1 1 4 6 7 6 4 3 2 2 2 2 3 3
23 22 22 22 23 22 21 21 19 18 16 15 15 12 8 7 4 4 7 12 17 19 19 18 17 17 16 12 8 6 7 7 8 10 11 12 13 12 11 10 7 4 2 4 5 3 4 5 9 9 7 9 10 8 5 4 5 4 5 4 4 4 6 4 1 4 1 2 4 1 2 9 10 7 2 1 4 3 4 4 3 3 3 3 3 3 3 2
23 22 22 22 22 23 22 21 20 19 17 15 16 14 12 10 8 7 6 8 14 17 17 19 21 23 23 20 16 12 10 8 9 12 13 15 16 12 11 9 5 3 2 4 5 2 2 6 11 7 7 6 3 5 6 4 4 3 4 3 3 3 3 4 2 3 1 3 3 3 3 9 9 4 1 1 3 2 3 4 4 5 5 5 4 3 3 1
23 22 22 22 22 23 22 21 21 20 18 17 17 17 15 12 10 9 7 7 12 18 18 20 23 26 25 23 21 18 15 12 12 15 17 18 18 14 12 10 4 4 4 5 6 4 3 7 9 7 10 7 4 3 6 4 2 3 3 3 4 3 2 3 3 3 1 2 2 2 4 9 6 2 1 1 2 3 2 4 5 7 7 6 6 5 3 3
23 22 22 21 21 22 22 20 21 20 18 19 18 17 15 12 9 8 7 5 7 12 17 21 22 25 26 23 20 20 21 18 13 15 20 22 19 13 11 10 6 4 6 8 8 7 6 5 3 9 9 7 5 3 6 5 3 4 5 6 5 4 5 6 3 2 2 3 1 1 3 7 4 3 3 0 2 3 3 5 7 8 9 8 8 7 6 7
23 21 20 20 20 20 19 18 21 22 21 20 17 14 13 11 7 4 4 3 5 7 10 15 17 20 23 20 18 18 18 17 15 15 19 25 22 12 7 9 7 5 7 7 6 6 7 4 6 8 4 6 7 3 6 7 3 4 6 10 9 8 7 5 1 3 2 3 1 2 1 5 3 4 5 1 1 1 2 4 6 7 9 10 9 9 9 11
23 19 18 21 20 18 16 17 22 23 21 19 15 12 12 10 6 2 1 2 4 4 4 9 10 11 15 16 18 16 7 9 16 17 19 23 24 14 6 6 4 4 6 7 3 3 4 2 5 7 5 6 6 4 6 7 5 2 5 9 10 7 6 5 4 3 1 3 2 2 3 3 5 6 4 1 2 3 2 4 7 9 10 10 11 11 13 14
23 19 20 24 22 19 19 19 21 21 18 16 13 12 11 10 7 3 3 3 5 5 6 7 8 9 11 14 20 16 2 5 11 15 20 23 22 15 7 5 3 2 5 6 1 2 3 3 3 5 6 5 5 5 6 7 7 3 3 5 7 7 7 7 6 4 3 2 2 1 3 2 4 6 3 1 2 5 5 6 7 10 12 12 13 14 16 17
21 20 23 26 23 22 23 20 19 18 15 12 12 14 13 13 10 5 4 2 4 5 5 5 8 10 12 17 21 13 4 8 8 9 20 22 20 12 6 7 6 4 5 6 4 3 3 5 6 7 5 4 5 4 8 10 5 4 1 5 6 6 6 5 6 3 1 2 3 3 1 1 5 5 3 2 2 7 8 7 8 13 15 15 16 17 18 19
21 21 24 24 20 21 23 21 18 16 14 10 14 16 16 16 10 6 3 3 2 4 3 6 9 9 13 17 13 6 5 5 3 8 16 17 16 8 3 7 8 6 3 3 5 3 1 3 6 8 5 5 4 1 6 9 3 4 6 7 5 5 5 4 4 3 3 1 5 5 4 3 4 4 2 2 3 8 6 4 8 16 19 18 19 20 21 22
23 21 23 22 21 22 24 25 21 15 13 13 17 19 19 15 7 4 3 4 2 3 3 6 7 7 13 11 3 2 4 2 5 12 11 10 11 6 5 7 6 6 1 4 1 3 1 1 1 4 4 5 5 3 2 3 5 9 8 6 6 5 4 3 2 3 2 3 6 6 6 4 3 5 4 3 4 5 3 2 6 13 19 22 22 23 24 24
26 23 22 23 25 24 25 31 27 17 15 17 20 23 20 9 4 3 7 2 1 2 4 4 2 7 12 8 2 4 3 2 7 12 7 4 7 5 7 6 3 4 2 4 2 3 2 1 2 3 5 7 8 5 5 4 6 7 4 4 4 3 3 3 4 2 1 5 5 4 2 4 4 5 4 5 5 5 5 5 8 14 21 26 25 25 26 26
30 27 24 25 27 26 28 33 29 20 19 19 24 26 15 3 1 8 6 3 1 4 4 4 3 5 8 3 3 4 3 2 5 7 4 3 5 5 4 4 5 3 2 5 2 3 2 3 2 1 5 7 7 5 4 3 2 3 4 6 4 2 2 2 3 1 3 6 4 2 1 3 5 6 7 7 6 7 7 6 8 16 24 27 27 28 28 28
33 29 27 26 27 29 31 31 27 23 21 22 27 21 8 3 8 11 7 1 1 2 3 3 2 4 7 4 2 3 3 2 5 3 2 3 4 4 3 2 6 4 1 5 3 0 2 4 1 3 3 8 9 6 3 1 3 4 5 6 4 2 1 2 3 2 4 4 2 2 2 2 3 5 8 7 4 4 6 6 6 12 22 28 29 30 29 29
34 29 28 28 28 30 32 31 27 24 23 26 24 11 4 8 9 7 10 8 1 2 3 3 4 5 6 4 3 4 3 2 5 4 2 4 4 5 5 4 5 4 4 3 2 5 3 4 5 6 3 9 11 6 6 6 5 4 4 5 4 4 4 4 4 3 3 2 2 2 2 3 3 3 4 4 3 2 3 5 5 8 16 25 28 30 31 31
34 32 33 32 31 32 35 34 29 27 29 29 17 6 7 12 8 4 8 7 2 2 3 3 6 5 3 2 2 4 4 2 4 5 3 5 5 5 5 6 7 4 5 4 2 3 3 5 5 1 1 9 10 5 6 7 4 2 2 5 3 4 4 2 3 4 2 2 3 2 3 3 3 2 3 4 5 3 2 3 6 9 14 21 27 31 33 33
34 34 33 33 35 36 38 37 31 30 35 27 10 8 12 12 6 4 5 6 6 6 5 3 3 4 3 2 2 5 3 1 5 4 3 3 3 5 4 5 9 9 7 6 3 2 2 4 4 2 2 4 6 6 4 3 3 2 2 4 4 4 6 3 1 1 3 1 3 3 3 3 1 3 3 5 6 3 1 1 6 12 15 21 29 33 36 36
36 36 34 36 39 37 41 42 32 35 40 23 9 11 10 9 7 5 4 6 8 10 9 4 4 6 6 3 4 7 3 1 4 4 3 3 3 7 6 5 9 14 12 6 3 3 5 2 4 1 1 2 3 7 5 3 4 5 3 5 3 2 4 3 1 2 3 3 4 2 4 3 2 2 3 4 5 6 3 2 6 12 18 23 30 35 39 39
38 36 38 42 41 39 44 44 35 41 37 15 10 15 9 7 9 7 6 6 7 10 8 8 7 6 7 6 4 7 6 4 5 4 4 3 4 8 10 6 9 18 20 10 1 2 4 1 4 0 2 1 2 5 4 3 2 4 4 4 4 3 2 2 2 2 1 3 5 2 4 4 4 5 3 4 9 9 6 4 5 12 20 26 31 36 39 39
39 35 37 45 45 41 44 46 44 43 26 6 10 15 8 7 9 12 16 10 6 8 8 8 7 3 5 7 5 6 8 7 7 6 4 4 4 7 12 8 7 16 23 16 4 1 3 2 3 1 1 1 1 2 4 3 0 2 3 2 2 2 4 3 3 3 3 2 4 3 2 3 4 6 9 11 13 10 8 7 9 16 24 30 34 38 41 42
41 30 29 43 47 41 44 48 44 31 14 7 12 11 5 7 8 15 24 17 7 7 7 6 7 5 5 5 3 5 7 6 8 6 4 6 5 5 10 10 5 9 15 13 6 1 3 3 3 1 1 2 3 4 7 9 6 3 4 4 2 1 2 1 1 2 3 3 3 3 4 3 3 4 8 10 9 9 11 10 11 18 26 31 34 37 41 44
42 21 20 37 42 42 47 41 26 15 8 10 14 12 7 6 6 12 22 20 11 6 5 5 7 7 6 5 4 4 6 5 7 6 4 7 6 3 10 14 10 9 8 6 6 4 3 4 4 2 2 4 5 5 4 6 7 6 6 7 7 5 4 2 4 2 2 2 4 3 5 5 3 2 4 5 3 4 9 10 11 18 26 30 32 34 37 41
36 14 17 32 35 44 47 24 11 12 9 13 16 13 9 7 6 11 15 15 9 4 4 3 3 5 5 5 5 6 7 5 7 7 5 8 9 5 9 17 19 19 13 5 6 6 4 3 4 3 4 5 5 4 1 2 3 3 3 5 6 6 6 5 6 3 2 2 2 2 4 5 2 2 3 3 4 5 7 10 12 16 21 25 28 29 30 33
32 17 17 28 35 49 42 11 9 13 9 16 19 12 10 7 6 10 11 11 8 3 4 3 2 5 4 3 5 7 8 6 8 10 5 6 9 5 7 18 22 19 11 3 3 5 4 3 3 1 3 3 4 4 3 1 2 2 3 3 5 5 4 4 5 3 3 4 3 2 5 5 1 3 4 3 4 5 6 10 13 14 14 17 22 25 26 29
30 22 20 30 41 49 34 8 11 15 11 16 15 10 11 7 7 12 10 10 8 4 4 4 3 4 3 3 5 7 9 7 8 10 5 3 6 3 8 20 22 13 7 4 6 9 6 3 4 3 1 3 4 3 2 2 1 3 3 3 5 5 5 3 2 3 1 5 7 5 8 6 2 2 3 2 0 2 4 7 10 12 12 13 16 21 25 28
18 15 18 36 50 49 33 21 18 14 14 17 13 14 14 6 9 18 13 10 10 6 4 4 4 5 4 3 3 4 8 6 3 5 4 3 3 2 7 20 21 12 6 4 8 13 8 3 6 7 7 7 5 5 5 3 2 2 2 4 6 8 9 5 2 3 4 4 8 7 8 5 2 1 2 3 1 0 3 5 7 10 11 12 13 17 22 27
8 6 8 23 40 39 33 35 28 13 11 16 12 13 17 11 8 15 16 13 13 11 6 2 5 6 4 5 5 4 7 3 1 3 4 5 3 1 4 13 15 9 4 4 11 13 4 1 8 10 9 9 7 5 5 5 6 5 5 8 9 9 11 7 4 5 6 4 6 9 5 2 6 2 2 5 3 3 4 6 9 10 12 12 12 13 17 22
4 3 5 9 17 18 16 23 24 14 13 16 9 8 17 17 6 7 15 14 13 16 7 1 5 8 6 9 8 5 7 4 2 4 4 4 2 1 2 6 7 6 4 6 11 10 3 2 8 8 8 6 4 4 5 6 8 9 9 10 9 8 10 10 8 7 6 5 9 9 6 5 12 6 6 7 5 4 5 7 9 9 10 11 11 11 14 18
4 3 7 7 5 6 9 14 17 16 18 17 9 6 14 17 11 9 11 8 9 17 10 2 9 15 13 13 9 6 8 7 6 6 4 3 3 2 2 2 2 4 4 5 6 5 3 4 5 4 6 5 4 4 4 5 4 5 8 10 11 11 12 13 13 10 9 9 13 8 8 11 12 6 8 9 5 4 5 6 6 6 9 12 12 12 13 15
6 3 6 8 3 1 5 9 12 14 18 16 11 11 14 17 18 13 7 4 5 13 14 12 14 17 16 14 11 9 10 10 10 8 6 5 4 4 3 1 1 2 3 4 3 3 3 3 3 4 5 5 4 5 5 6 5 3 7 11 12 11 12 13 14 11 9 10 11 5 7 11 7 6 8 7 5 5 5 4 6 8 9 11 12 13 13 14
10 7 5 6 4 3 3 3 7 9 11 12 11 12 14 17 19 14 7 8 9 10 14 19 18 15 15 14 13 13 15 15 13 10 10 8 5 4 4 3 3 2 2 3 2 2 4 2 2 5 4 6 4 6 5 6 6 5 11 12 7 6 7 9 10 6 4 8 11 7 10 11 5 7 7 7 8 7 6 7 9 9 8 9 10 13 14 14
16 13 10 6 1 2 2 1 3 5 6 7 7 7 11 16 17 13 7 7 11 9 12 20 18 11 11 14 17 18 18 14 9 9 14 14 10 9 6 4 6 5 3 4 3 3 4 2 2 3 5 5 4 7 6 3 1 6 16 12 7 6 7 8 7 7 8 11 11 9 11 9 4 7 7 8 10 9 10 12 12 12 13 13 14 16 16 16
13 12 12 8 2 3 3 1 2 5 3 3 3 3 5 8 8 10 7 4 5 5 9 17 15 7 8 15 19 17 14 13 9 9 13 13 11 11 10 10 12 10 7 6 4 3 5 4 2 3 5 2 1 4 6 4 1 9 14 9 12 13 11 6 5 10 13 13 10 9 11 6 4 6 6 6 8 10 14 16 16 17 17 17 19 18 17 17
Wind_Direction
231 224 220 217 210 202 196 198 204 204 199 201 204 206 215 220 230 244 249 260 273 283 290 294 301 304 307 311 312 318 321 323 322 318 315 310 306 292 213 167 150 142 44 7 39 67 335 340 338 1 17 41 46 52 62 48 39 43 100 80 92 165 188 179 179 189 161 282 284 46 37 56 2 332 334 322 295 273 305 323 355 90 151 295 295 295 294 289
247 247 246 242 235 228 221 217 219 219 215 217 218 222 232 241 249 257 261 270 279 285 293 296 300 303 307 312 315 319 321 323 321 316 313 309 303 146 142 129 112 65 353 334 320 304 310 320 336 15 25 58 57 49 59 45 42 67 110 74 202 196 210 193 183 189 167 340 299 360 15 38 336 311 331 321 292 304 319 326 33 139 266 294 294 289 286 285
249 250 250 250 246 242 238 232 232 230 226 228 232 235 238 245 250 257 262 267 274 281 288 293 297 303 309 314 318 321 322 324 324 326 342 109 122 124 122 108 81 31 360 342 313 296 290 291 352 20 34 68 68 56 60 43 38 77 95 70 239 220 234 232 209 207 210 281 296 337 327 324 306 281 297 295 298 310 325 317 324 313 312 321 322 316 296 288
248 250 251 252 251 250 248 244 242 240 237 237 240 242 242 245 249 254 260 265 275 282 288 294 298 304 308 313 317 319 324 328 342 83 114 123 124 123 111 89 52 15 359 348 315 279 262 260 7 21 49 74 57 53 54 32 34 123 106 146 206 186 204 267 251 240 247 267 269 277 296 306 299 244 259 259 298 310 327 146 304 315 319 348 2 7 343 306
251 252 254 255 255 254 253 250 249 248 246 245 246 247 246 246 250 257 264 271 279 285 291 296 301 305 306 309 313 315 331 353 81 113 126 133 133 133 103 54 12 2 355 346 315 266 241 242 4 49 68 69 43 49 49 35 68 134 126 172 173 150 180 282 189 253 261 260 254 251 276 288 264 258 254 234 238 282 297 281 298 304 300 360 3 357 341 308
256 255 255 256 258 256 256 253 253 253 252 251 250 251 252 253 257 264 269 275 281 286 291 294 298 301 302 305 309 312 330 2 163 136 152 166 181 230 284 311 335 344 340 335 311 254 231 230 192 86 73 66 50 69 90 62 85 169 250 195 187 189 222 273 249 274 278 261 264 259 250 249 265 283 262 235 236 260 278 287 289 264 208 181 353 331 307 283
259 257 256 257 257 256 256 255 254 253 252 251 250 252 255 258 261 266 270 275 279 284 288 291 294 296 299 302 305 307 300 282 267 250 232 229 243 263 278 286 304 320 323 322 292 232 223 224 177 115 82 71 90 105 103 96 119 105 260 230 215 227 244 276 275 287 286 274 279 274 260 261 260 273 266 233 239 254 261 269 237 200 179 170 206 285 291 288
259 258 257 257 257 255 254 254 253 251 251 250 251 252 254 258 260 264 269 274 280 283 285 288 290 292 297 299 303 304 292 285 274 258 247 245 254 262 269 275 289 304 307 308 273 219 215 222 201 144 76 71 138 132 114 84 104 130 244 273 244 257 274 290 290 290 286 283 286 272 256 262 252 245 254 228 227 231 225 212 189 180 164 195 225 251 270 285
258 258 257 257 257 255 254 254 252 250 251 250 251 252 254 257 260 266 272 276 281 282 284 286 288 291 294 294 300 304 293 289 277 262 249 246 253 257 262 267 276 284 282 287 258 219 212 208 208 198 193 150 142 129 129 141 287 200 225 301 292 291 301 299 292 288 284 285 282 261 250 255 237 232 249 227 213 203 191 192 184 172 209 254 307 323 303 279
257 257 256 256 256 256 254 253 252 251 251 251 252 253 254 258 262 269 274 278 280 280 283 283 285 288 287 290 292 285 281 284 280 271 257 251 253 256 259 263 267 265 253 249 231 216 208 204 207 191 192 144 135 130 143 143 314 240 301 310 293 298 305 298 287 285 285 283 273 242 229 213 189 193 246 210 194 186 179 183 186 191 224 272 318 318 316 308
258 257 256 255 255 254 254 253 253 252 251 252 252 255 258 262 267 271 272 275 276 277 279 279 283 282 281 282 253 234 271 280 275 269 263 263 260 257 258 257 256 243 225 219 205 210 216 224 205 179 193 143 135 142 174 175 349 337 341 311 299 315 307 292 282 283 287 287 278 222 213 127 169 200 241 179 168 170 179 186 190 199 234 287 300 300 308 313
259 259 257 255 254 253 253 252 252 252 252 252 254 257 260 264 267 269 270 271 272 274 276 276 277 274 275 273 256 256 275 274 269 268 263 263 259 252 253 249 241 226 220 219 215 230 235 226 207 194 175 145 144 108 171 178 15 352 16 321 308 339 322 304 305 289 300 304 350 60 288 344 287 241 146 163 166 169 187 200 201 211 252 272 280 290 300 309
260 258 257 255 253 252 251 250 250 250 251 252 255 257 260 264 265 266 266 266 268 269 271 270 270 272 272 269 267 269 270 267 266 266 261 258 256 253 250 241 232 223 221 227 236 248 234 219 207 191 155 142 155 140 142 96 39 326 38 40 318 348 327 325 14 349 349 301 305 80 297 298 294 270 142 171 178 180 200 209 217 234 249 257 265 280 293 304
260 257 256 255 253 251 249 248 248 249 250 251 254 257 259 261 262 263 263 264 265 263 264 266 267 270 266 264 272 270 263 263 261 259 259 257 254 249 243 234 229 227 230 242 253 250 224 204 195 177 153 141 144 140 109 23 34 323 357 34 353 347 286 308 351 334 344 319 184 133 245 267 250 251 196 193 187 189 219 224 233 243 241 246 252 265 282 296
262 257 254 253 251 249 247 246 246 247 248 250 252 256 258 259 259 260 261 261 260 260 261 263 267 270 270 268 268 266 262 260 257 255 254 253 251 243 233 228 228 232 241 247 239 224 198 181 178 152 135 136 132 123 33 357 19 18 315 310 340 170 271 308 340 348 221 302 82 127 232 273 228 233 222 194 195 205 231 237 238 242 235 233 240 248 267 288
261 257 252 250 248 247 246 244 244 245 246 248 252 254 255 256 257 256 257 258 258 259 259 263 265 263 271 272 265 263 260 255 254 253 249 246 243 233 227 227 230 234 235 225 208 194 181 169 153 129 131 138 125 102 48 355 337 3 238 251 271 199 270 315 337 50 180 229 32 80 237 289 223 211 192 175 197 212 226 237 239 236 233 221 224 238 256 278
256 255 252 248 245 244 243 242 242 243 244 247 249 251 253 252 253 254 253 254 255 256 259 259 260 261 261 262 260 258 255 251 248 245 242 238 232 227 225 223 220 216 202 184 179 175 173 160 142 136 118 106 107 104 76 309 281 308 343 241 251 217 216 286 302 10 54 119 355 22 244 269 226 192 210 182 195 211 222 233 236 226 226 219 218 240 255 266
251 252 251 246 243 240 239 240 241 242 244 245 247 248 248 249 250 252 252 252 251 254 263 243 224 276 264 248 247 252 252 245 238 234 230 223 219 216 214 214 208 192 170 161 170 167 166 144 124 120 44 62 126 123 164 229 211 190 185 207 250 241 227 248 261 305 31 37 331 355 287 276 259 195 204 222 193 208 222 225 226 220 217 219 231 254 262 271
246 247 246 243 240 237 236 238 239 241 243 242 244 243 244 250 253 254 252 246 232 223 249 220 195 188 241 233 239 248 250 237 226 223 218 209 204 200 197 195 189 176 156 150 175 164 158 111 89 142 201 186 187 175 197 207 164 163 170 160 191 226 247 232 234 265 5 14 294 273 255 272 273 236 161 136 190 203 218 216 215 217 217 237 259 276 285 297
243 242 241 240 238 236 235 235 236 238 237 238 238 238 243 248 257 262 250 240 236 236 241 231 215 220 232 252 256 235 225 220 217 212 205 200 193 186 178 170 165 164 154 152 177 165 154 144 186 218 206 190 199 197 192 157 120 130 133 138 190 218 259 239 231 292 25 107 263 247 244 264 269 268 348 80 193 196 211 212 212 216 226 257 272 293 300 303
240 238 237 237 235 234 232 232 235 234 232 232 231 230 229 220 221 272 262 253 254 249 247 247 243 241 244 250 249 231 212 206 206 202 197 192 184 175 171 162 142 151 191 128 121 124 137 186 228 227 195 185 199 193 163 119 115 116 133 172 224 222 252 256 240 314 15 174 263 300 278 267 261 266 317 195 200 201 220 218 218 220 226 247 261 273 280 296
238 236 235 233 231 230 229 230 234 234 230 227 227 225 223 222 230 256 285 285 273 261 250 246 244 244 245 244 241 233 215 203 206 202 196 187 182 182 173 161 145 163 172 114 106 90 148 226 241 215 141 135 146 161 166 165 146 119 125 166 240 224 252 288 304 333 31 175 262 6 336 271 261 246 201 190 204 212 231 223 211 212 218 227 233 240 241 260
236 234 231 230 228 227 227 229 232 233 230 225 226 225 225 230 236 256 282 290 280 269 254 245 242 242 241 239 237 228 215 215 219 208 203 193 187 189 176 160 146 141 154 174 164 151 184 248 246 177 138 123 88 128 147 139 161 167 152 172 231 212 194 271 287 320 17 139 246 8 331 279 272 244 178 80 188 188 188 201 201 205 212 216 216 216 198 169
231 229 228 227 226 226 224 226 230 233 230 226 227 226 227 232 233 260 278 276 281 270 255 247 243 242 240 235 233 225 219 223 224 211 206 198 184 181 184 170 139 139 189 197 181 183 216 254 195 143 146 147 131 133 143 148 218 229 204 200 214 201 203 231 267 318 346 21 84 107 331 292 286 269 252 184 158 162 147 176 190 198 205 208 207 198 178 166
228 226 229 227 226 226 221 221 227 231 231 227 227 222 221 224 224 259 286 290 283 267 255 241 233 238 235 230 226 216 215 223 225 217 207 199 189 174 177 175 161 189 199 176 167 213 244 238 131 120 131 156 150 172 181 173 201 265 228 208 210 208 208 219 2 30 12 340 286 142 289 287 313 293 255 275 323 205 164 185 193 196 200 203 198 184 172 166
228 221 229 236 234 222 210 219 229 231 232 228 221 211 210 206 196 224 59 24 283 239 207 210 209 221 217 211 202 189 202 232 221 215 201 198 198 185 163 162 158 199 174 146 158 227 245 203 133 131 145 161 171 219 217 172 150 271 245 204 203 196 182 179 145 115 170 247 266 119 174 250 314 305 266 284 297 270 261 229 212 206 203 201 193 180 173 165
227 215 227 236 235 220 204 215 230 229 229 228 211 195 194 181 161 145 72 0 274 190 153 175 175 184 193 185 175 167 176 196 187 200 192 190 196 190 185 171 132 186 154 130 198 242 179 145 121 140 141 154 186 228 218 160 139 239 255 162 166 169 176 181 162 173 228 253 320 16 148 210 290 286 286 327 275 272 253 235 225 215 207 201 192 181 174 165
228 218 229 229 230 228 212 212 227 224 221 220 196 183 175 164 154 123 92 303 260 142 136 166 159 170 172 166 168 162 136 144 146 188 185 183 189 185 202 199 163 169 160 151 211 261 151 168 186 168 150 181 202 220 186 159 154 245 202 115 137 152 160 153 146 178 312 359 291 291 135 206 262 269 327 22 291 272 245 217 214 214 208 200 191 182 174 165
234 219 223 222 230 237 218 211 222 220 212 195 179 176 164 156 148 100 88 245 204 110 117 152 147 155 150 154 172 161 122 130 114 168 171 176 185 176 187 193 158 137 143 167 208 251 111 189 195 159 158 202 203 294 174 167 186 177 122 90 77 72 79 93 115 122 51 12 249 238 183 202 271 278 312 37 271 262 244 206 206 209 206 200 191 183 175 167
242 230 226 227 233 232 216 211 215 209 192 177 174 170 157 151 134 108 211 236 168 97 106 146 154 155 143 141 187 189 126 83 112 140 150 165 176 158 122 147 131 123 70 2 207 237 17 90 190 160 177 174 131 66 74 118 137 135 110 73 61 43 47 56 61 92 76 273 249 230 199 191 270 274 235 202 224 213 171 182 209 204 204 200 191 183 177 169
238 235 231 230 231 227 213 210 210 197 175 171 171 163 154 142 87 171 216 237 73 105 110 142 167 151 154 150 174 176 117 67 138 141 138 147 158 141 122 133 107 91 8 329 284 303 350 83 253 198 169 131 103 67 43 68 119 120 91 95 93 5 16 28 358 51 152 252 259 258 209 174 220 255 241 229 233 195 168 183 192 194 202 200 191 184 179 172
229 231 236 234 235 233 217 211 208 189 172 171 167 161 152 126 227 215 223 45 93 202 150 165 194 166 174 147 105 155 121 115 165 149 138 139 156 173 165 171 159 96 313 235 231 331 295 229 247 170 177 159 120 79 46 36 78 92 96 117 111 346 8 350 293 249 227 244 266 284 201 195 228 247 248 239 232 214 205 201 192 194 198 196 190 185 180 175
225 230 238 234 237 235 219 211 207 189 177 169 166 162 143 180 221 218 215 209 208 201 123 130 131 134 156 139 128 168 121 145 182 158 135 124 149 208 252 209 159 126 185 193 174 259 269 288 208 141 209 192 164 141 145 189 172 156 149 142 138 133 138 256 256 261 259 255 293 282 240 243 257 264 254 241 229 214 210 216 216 204 199 194 188 185 182 179
228 235 238 234 239 234 216 208 205 193 181 170 166 164 156 210 224 196 193 210 223 51 72 103 97 105 146 169 214 181 138 191 176 142 110 123 145 208 237 232 186 115 97 144 168 176 206 284 201 175 193 184 180 174 158 146 153 178 161 135 147 158 171 214 215 214 243 275 324 300 236 195 197 270 279 279 308 286 237 230 223 211 204 196 189 187 187 184
237 242 240 241 239 226 211 206 205 198 183 171 166 174 192 215 228 173 187 197 154 72 46 72 100 115 177 238 278 207 189 215 168 136 147 163 175 197 196 207 200 158 134 162 213 167 181 267 240 223 132 165 175 173 132 116 133 200 124 112 173 188 154 160 193 175 173 306 305 238 229 221 200 268 299 327 322 284 259 257 213 201 201 196 193 193 191 188
237 237 235 237 232 219 207 201 204 201 187 173 170 203 208 222 215 157 180 171 157 145 111 77 97 122 205 249 247 231 229 161 154 154 192 192 210 204 190 207 197 187 177 167 185 160 151 274 278 28 55 164 173 165 137 133 166 157 135 172 211 179 119 111 228 65 79 270 266 195 238 292 301 286 317 356 326 270 195 290 207 196 194 196 198 197 194 192
229 229 228 228 225 219 205 197 201 200 189 180 191 208 215 225 195 168 176 155 150 142 136 187 192 158 191 203 197 206 202 142 163 171 195 196 221 194 191 235 199 193 203 186 192 193 151 253 279 126 144 250 155 126 86 50 125 126 185 203 183 130 97 105 218 353 53 243 272 207 215 246 186 245 319 350 295 258 205 172 201 197 196 201 203 200 197 195
223 222 225 224 224 221 203 194 201 198 189 187 212 212 223 218 190 175 167 141 140 149 163 209 202 171 186 188 189 187 178 182 175 177 186 197 244 187 172 212 197 194 205 198 211 230 150 194 283 208 155 228 121 116 80 17 101 135 180 171 121 146 170 114 169 218 175 238 281 259 214 221 190 201 218 215 234 234 202 177 201 203 201 205 206 203 201 198
214 211 224 224 221 219 202 194 201 198 189 197 216 212 221 210 198 187 179 165 146 169 193 209 196 178 181 173 162 170 181 185 167 175 189 185 232 191 173 193 197 197 200 188 177 231 147 179 260 287 195 182 85 153 173 200 240 67 103 122 90 147 167 154 158 166 162 210 268 274 239 228 218 198 180 193 213 207 180 186 212 212 207 206 205 204 203 200
204 203 226 224 216 213 200 197 202 199 191 218 214 213 206 190 202 194 186 181 175 188 198 200 189 183 175 173 165 165 181 184 169 183 211 188 201 207 191 190 173 186 192 181 181 158 124 185 221 283 311 166 186 212 194 184 173 145 150 169 182 116 119 177 197 135 135 165 212 270 281 245 227 203 179 193 210 193 183 195 211 214 211 210 208 206 205 203
197 204 228 217 212 206 195 195 204 200 203 220 218 226 211 172 179 192 189 190 195 199 185 179 190 186 167 172 189 172 167 178 183 192 220 202 199 222 204 191 162 145 149 168 202 193 156 180 173 159 184 194 224 250 223 193 178 173 184 180 181 169 131 163 241 201 126 173 178 207 269 255 218 195 185 196 220 210 208 212 214 216 215 214 212 210 208 207
191 208 215 200 200 195 187 191 210 200 210 217 218 222 196 157 164 182 188 192 197 202 175 169 183 182 173 173 179 170 165 175 192 194 216 211 204 210 199 185 166 155 152 165 198 180 142 126 139 178 211 215 249 294 299 211 155 138 203 185 178 182 155 171 221 212 148 215 140 119 264 270 244 209 211 220 250 255 237 229 230 230 223 220 218 215 214 212
189 201 196 190 195 188 181 192 217 199 224 223 219 217 183 168 169 173 182 192 190 168 171 183 174 185 197 170 155 172 178 185 193 193 208 218 208 216 190 175 164 159 161 160 166 160 134 123 150 227 305 318 317 332 356 16 95 135 236 183 170 194 175 174 199 160 157 197 134 120 250 257 231 220 233 248 254 253 238 229 236 242 237 230 225 220 218 216
192 189 173 182 194 187 178 196 207 200 223 218 219 219 196 189 178 177 183 189 186 158 159 186 186 183 196 156 157 182 188 195 203 197 197 210 200 189 175 174 167 164 180 184 165 170 174 164 147 141 346 336 332 319 302 314 236 209 218 171 179 171 122 108 131 106 207 196 151 179 244 244 209 223 263 298 277 249 246 230 235 242 241 237 229 222 219 216
191 185 169 178 186 185 187 202 201 202 214 209 217 217 206 209 196 192 188 179 184 175 159 189 178 159 163 155 148 180 190 194 201 190 189 202 192 130 168 179 175 175 201 204 169 170 178 186 163 170 196 202 207 216 209 198 190 209 182 167 192 178 157 163 145 155 226 193 155 202 245 264 298 341 302 302 26 270 252 220 221 230 230 232 232 226 222 218
187 185 175 177 186 191 198 203 204 212 210 206 218 214 209 219 208 192 189 190 197 190 175 167 156 151 167 175 170 189 202 207 94 170 192 192 202 3 157 177 178 180 187 165 166 166 157 235 194 202 215 202 197 208 182 141 152 194 198 181 193 196 182 173 145 180 201 163 199 226 213 250 269 232 225 262 238 217 230 211 213 221 222 225 230 230 228 224
196 181 178 174 193 204 206 203 205 214 209 204 206 204 210 216 210 186 195 201 199 190 189 41 167 186 195 184 188 194 188 187 161 181 189 175 182 357 97 152 167 169 138 138 163 158 100 239 209 217 233 209 170 172 169 158 173 192 195 190 197 197 186 186 199 202 154 144 238 236 147 213 250 213 191 233 226 216 233 225 226 229 224 220 222 226 227 224
204 202 192 181 184 208 214 204 200 206 211 210 205 206 214 214 211 204 199 197 185 184 190 231 205 209 205 188 193 194 178 188 202 193 176 150 148 108 75 75 145 157 128 127 159 146 130 218 206 195 224 207 130 138 167 162 170 186 192 201 206 198 189 196 211 207 166 190 244 234 165 220 244 194 190 214 193 189 219 224 225 214 207 210 214 219 218 217
173 186 211 214 217 306 237 206 190 200 209 208 209 216 216 214 216 212 181 135 182 190 195 212 215 212 206 195 193 193 187 193 206 201 170 157 169 147 129 145 169 155 126 122 155 157 158 221 191 167 227 236 169 160 169 169 179 199 210 215 214 205 196 200 214 212 193 222 255 248 211 236 232 172 198 204 163 169 193 201 204 196 195 202 209 215 215 218
191 191 190 210 247 325 319 198 178 198 207 200 204 210 211 214 215 211 181 169 193 195 198 213 217 204 198 197 196 205 207 201 204 199 169 160 177 173 174 184 157 146 152 140 151 183 187 220 136 144 230 249 181 154 172 190 190 214 233 228 201 179 190 205 219 209 188 243 258 251 251 257 218 167 185 178 165 173 189 201 204 202 204 211 219 225 227 232
201 202 188 177 217 244 268 344 169 201 213 205 201 194 204 215 210 201 200 202 202 194 195 211 214 196 187 196 202 213 213 197 187 182 175 178 186 184 187 177 148 144 165 166 156 167 187 204 82 130 215 230 160 153 172 160 92 254 251 232 167 174 207 203 206 194 193 224 233 232 248 255 201 168 185 187 184 192 208 215 218 226 233 237 242 246 249 250
176 182 181 180 183 193 200 24 162 203 220 216 217 188 195 213 200 188 200 225 209 191 202 213 209 181 184 201 207 215 206 181 162 159 169 177 180 179 182 174 165 165 170 170 166 161 167 164 136 169 199 219 73 146 145 99 49 259 252 210 178 208 219 185 191 211 210 213 215 224 237 231 156 162 188 199 197 208 224 228 231 238 242 246 251 255 258 257
Height
1540 1541 1541 1542 1542 1543 1544 1544 1545 1546 1546 1547 1547 1548 1548 1549 1549 1550 1550 1551 1551 1552 1552 1552 1552 1552 1552 1552 1552 1552 1552 1551 1551 1550 1550 1550 1550 1550 1550 1551 1552 1552 1553 1553 1553 1553 1553 1553 1553 1553 1553 1553 1553 1554 1554 1554 1554 1554 1558 1561 1562 1568 1566 1563 1566 1565 1563 1563 1564 1564 1564 1565 1565 1564 1563 1562 1562 1563 1562 1562 1563 1562 1562 1562 1561 1560 1560 1560
1540 1540 1541 1541 1542 1543 1543 1544 1545 1545 1546 1546 1547 1547 1548 1548 1549 1549 1550 1550 1551 1551 1551 1551 1551 1551 1551 1551 1551 1551 1551 1551 1550 1549 1549 1549 1549 1549 1550 1551 1552 1552 1553 1553 1553 1553 1553 1553 1553 1553 1553 1553 1554 1554 1554 1555 1555 1556 1561 1562 1562 1566 1563 1560 1562 1562 1562 1562 1563 1564 1564 1564 1564 1563 1563 1562 1561 1561 1562 1562 1562 1562 1562 1562 1561 1560 1559 1558
1540 1540 1541 1541 1542 1543 1543 1544 1544 1545 1545 1546 1546 1547 1547 1548 1548 1549 1549 1550 1550 1550 1551 1551 1551 1551 1551 1551 1550 1550 1550 1550 1549 1548 1548 1548 1549 1550 1551 1551 1552 1552 1552 1552 1553 1553 1553 1553 1553 1553 1553 1553 1554 1554 1554 1555 1555 1557 1560 1561 1562 1563 1561 1561 1561 1561 1562 1562 1562 1563 1563 1564 1564 1563 1563 1562 1560 1559 1561 1561 1561 1561 1561 1560 1559 1559 1558 1558
1539 1540 1540 1541 1542 1542 1543 1543 1544 1544 1545 1545 1546 1546 1547 1547 1548 1548 1549 1549 1549 1550 1550 1550 1550 1550 1550 1550 1550 1550 1549 1549 1548 1548 1549 1549 1550 1550 1551 1551 1552 1552 1552 1552 1552 1552 1553 1553 1553 1553 1553 1554 1554 1554 1555 1555 1556 1557 1558 1559 1561 1561 1561 1560 1560 1561 1561 1561 1562 1563 1563 1563 1562 1563 1562 1562 1561 1559 1559 1560 1560 1560 1559 1559 1558 1558 1557 1557
1538 1539 1540 1540 1541 1542 1542 1543 1543 1544 1544 1545 1545 1546 1546 1547 1547 1548 1548 1548 1549 1549 1549 1549 1549 1549 1549 1549 1549 1549 1550 1550 1549 1549 1549 1550 1550 1550 1551 1551 1551 1552 1552 1552 1552 1552 1552 1552 1553 1553 1553 1554 1555 1554 1556 1557 1556 1557 1558 1559 1559 1560 1560 1559 1560 1560 1560 1561 1562 1562 1562 1562 1561 1562 1561 1561 1561 1559 1558 1559 1560 1559 1559 1558 1558 1557 1557 1556
1538 1538 1539 1540 1540 1541 1541 1542 1543 1543 1544 1544 1545 1545 1546 1546 1547 1547 1547 1548 1548 1548 1548 1548 1548 1548 1548 1549 1549 1549 1550 1551 1550 1549 1550 1550 1550 1550 1550 1551 1551 1551 1551 1551 1551 1552 1552 1552 1553 1553 1553 1554 1556 1556 1556 1557 1557 1557 1558 1559 1559 1559 1559 1559 1560 1559 1560 1560 1560 1561 1561 1561 1561 1560 1560 1560 1559 1558 1558 1558 1558 1558 1558 1558 1557 1557 1556 1556
1537 1538 1538 1539 1540 1540 1541 1541 1542 1543 1543 1544 1544 1544 1545 1545 1546 1546 1547 1547 1547 1547 1547 1548 1548 1548 1548 1548 1548 1548 1549 1549 1549 1549 1550 1550 1550 1550 1550 1550 1551 1551 1551 1551 1551 1551 1552 1552 1553 1553 1554 1555 1556 1557 1557 1557 1557 1557 1558 1558 1558 1558 1558 1558 1559 1558 1559 1558 1559 1559 1559 1559 1559 1558 1558 1558 1558 1557 1557 1557 1557 1558 1557 1557 1557 1556 1556 1555
1536 1537 1538 1538 1539 1539 1540 1541 1541 1542 1542 1543 1543 1544 1544 1545 1545 1546 1546 1546 1546 1547 1547 1547 1547 1547 1547 1547 1547 1547 1547 1548 1548 1548 1549 1549 1549 1549 1550 1550 1550 1550 1551 1551 1551 1551 1552 1552 1553 1553 1554 1555 1556 1556 1557 1557 1557 1558 1557 1557 1558 1558 1557 1558 1557 1557 1557 1556 1557 1557 1557 1557 1557 1557 1557 1557 1556 1556 1556 1557 1557 1556 1556 1556 1556 1556 1556 1555
1535 1536 1537 1537 1538 1538 1539 1540 1540 1541 1541 1542 1543 1543 1544 1544 1545 1545 1545 1545 1545 1545 1545 1546 1546 1546 1546 1546 1546 1547 1546 1546 1547 1547 1548 1548 1548 1549 1549 1549 1550 1550 1550 1550 1551 1551 1551 1552 1552 1553 1554 1555 1556 1556 1557 1557 1557 1557 1557 1557 1557 1557 1556 1556 1556 1555 1555 1555 1555 1555 1556 1555 1556 1556 1556 1556 1556 1556 1556 1556 1556 1556 1556 1556 1555 1555 1555 1555
1534 1535 1536 1536 1537 1537 1538 1539 1539 1540 1541 1541 1542 1542 1543 1543 1544 1544 1544 1544 1544 1544 1545 1545 1545 1545 1545 1545 1546 1546 1545 1546 1546 1546 1547 1547 1547 1548 1548 1548 1549 1549 1550 1550 1550 1551 1551 1552 1552 1553 1554 1555 1556 1557 1557 1557 1557 1557 1558 1557 1557 1556 1555 1555 1554 1553 1553 1553 1553 1554 1554 1555 1555 1555 1554 1554 1555 1555 1556 1556 1556 1556 1556 1555 1554 1554 1554 1554
1533 1533 1534 1535 1536 1536 1537 1538 1538 1539 1540 1540 1541 1541 1542 1542 1542 1543 1543 1543 1543 1543 1544 1544 1544 1544 1544 1544 1545 1545 1544 1545 1545 1546 1546 1546 1547 1547 1547 1548 1548 1549 1549 1549 1550 1550 1551 1551 1552 1553 1553 1555 1556 1557 1557 1557 1558 1558 1558 1557 1556 1555 1554 1553 1552 1552 1552 1551 1552 1553 1553 1554 1555 1554 1552 1553 1554 1555 1556 1556 1556 1556 1555 1555 1554 1554 1553 1553
1531 1532 1533 1534 1534 1535 1536 1536 1537 1538 1538 1539 1540 1540 1541 1541 1541 1542 1542 1542 1542 1542 1542 1543 1543 1543 1543 1543 1543 1543 1543 1544 1544 1545 1545 1545 1546 1546 1547 1547 1547 1548 1548 1549 1549 1550 1550 1551 1552 1552 1553 1555 1556 1557 1557 1558 1558 1558 1558 1557 1556 1555 1553 1552 1552 1551 1551 1551 1551 1552 1552 1552 1554 1554 1554 1554 1554 1555 1556 1556 1555 1555 1555 1554 1554 1553 1553 1553
1529 1530 1531 1532 1533 1534 1534 1535 1536 1536 1537 1538 1538 1539 1539 1540 1540 1540 1541 1541 1541 1541 1541 1541 1542 1542 1542 1541 1540 1541 1542 1542 1543 1543 1544 1544 1545 1545 1546 1546 1546 1547 1548 1548 1548 1549 1550 1550 1551 1552 1553 1554 1556 1557 1557 1558 1558 1557 1559 1559 1558 1557 1554 1552 1552 1552 1551 1551 1551 1552 1553 1553 1554 1555 1555 1555 1555 1556 1556 1555 1555 1555 1554 1554 1553 1553 1552 1552
1527 1528 1529 1530 1531 1532 1532 1533 1534 1535 1536 1536 1537 1537 1538 1538 1539 1539 1539 1540 1540 1540 1540 1540 1541 1541 1541 1540 1539 1540 1540 1541 1541 1541 1542 1543 1543 1544 1545 1545 1546 1546 1547 1547 1548 1548 1549 1550 1551 1552 1553 1554 1555 1556 1558 1559 1558 1559 1560 1561 1564 1562 1555 1552 1553 1552 1550 1551 1550 1552 1555 1554 1554 1555 1554 1555 1555 1555 1555 1555 1554 1554 1554 1553 1553 1552 1551 1551
1525 1526 1527 1528 1529 1530 1531 1531 1532 1533 1534 1535 1535 1536 1536 1537 1537 1537 1538 1538 1538 1539 1539 1539 1539 1540 1540 1538 1537 1538 1538 1538 1539 1539 1540 1541 1542 1543 1543 1544 1545 1545 1546 1546 1547 1548 1548 1549 1550 1551 1553 1554 1555 1557 1559 1560 1560 1562 1561 1561 1568 1566 1557 1553 1552 1552 1551 1551 1551 1552 1554 1553 1554 1554 1553 1554 1554 1555 1555 1554 1554 1553 1553 1552 1552 1551 1551 1550
1523 1524 1525 1526 1527 1528 1529 1530 1530 1531 1532 1533 1534 1534 1535 1535 1536 1536 1536 1537 1537 1537 1538 1538 1538 1539 1539 1537 1536 1536 1536 1537 1537 1538 1539 1539 1540 1541 1542 1543 1544 1544 1545 1546 1546 1547 1548 1549 1550 1552 1553 1554 1556 1557 1560 1563 1563 1565 1564 1561 1563 1564 1561 1556 1552 1552 1552 1551 1551 1552 1552 1551 1552 1554 1553 1553 1554 1554 1554 1553 1553 1552 1551 1552 1551 1551 1550 1550
1521 1522 1523 1524 1525 1526 1527 1528 1528 1530 1531 1531 1532 1532 1533 1534 1534 1535 1535 1535 1536 1536 1537 1537 1537 1538 1537 1534 1534 1534 1534 1535 1535 1536 1537 1538 1539 1540 1541 1542 1542 1544 1544 1545 1546 1547 1547 1549 1550 1552 1553 1555 1556 1557 1562 1566 1563 1564 1567 1564 1562 1563 1563 1558 1552 1552 1553 1552 1551 1553 1553 1549 1550 1553 1552 1552 1553 1553 1553 1552 1551 1551 1551 1551 1551 1550 1550 1550
1519 1520 1521 1522 1523 1524 1525 1526 1527 1528 1529 1530 1530 1531 1532 1532 1533 1533 1533 1534 1534 1535 1536 1535 1537 1539 1535 1531 1532 1532 1533 1534 1534 1535 1536 1537 1538 1539 1540 1541 1542 1543 1544 1545 1546 1547 1548 1549 1551 1552 1555 1557 1556 1557 1561 1560 1554 1556 1562 1562 1561 1562 1562 1560 1555 1553 1553 1552 1551 1553 1553 1548 1548 1551 1552 1552 1552 1552 1552 1551 1550 1550 1550 1551 1551 1550 1550 1550
1517 1518 1519 1520 1521 1522 1523 1524 1525 1526 1527 1528 1529 1530 1530 1531 1532 1532 1532 1532 1532 1533 1533 1531 1532 1535 1532 1528 1530 1531 1531 1532 1533 1534 1534 1535 1537 1538 1539 1540 1542 1542 1543 1545 1545 1547 1547 1549 1552 1553 1553 1554 1552 1552 1551 1549 1548 1551 1555 1556 1556 1555 1556 1557 1556 1554 1554 1553 1552 1552 1552 1548 1545 1548 1551 1551 1551 1551 1551 1551 1550 1550 1551 1551 1551 1550 1550 1551
1514 1516 1517 1518 1519 1520 1521 1522 1523 1524 1525 1526 1527 1529 1530 1530 1531 1530 1529 1529 1528 1528 1528 1527 1527 1529 1528 1528 1529 1530 1531 1532 1532 1533 1534 1535 1536 1537 1539 1540 1541 1543 1543 1544 1546 1547 1548 1550 1551 1547 1545 1548 1547 1547 1547 1548 1551 1553 1555 1556 1556 1555 1552 1553 1554 1554 1554 1554 1552 1552 1552 1550 1546 1546 1550 1551 1550 1551 1551 1550 1551 1551 1551 1551 1551 1551 1550 1551
1512 1513 1514 1516 1517 1518 1519 1520 1521 1522 1523 1524 1526 1527 1528 1529 1530 1529 1528 1526 1525 1525 1525 1525 1526 1526 1526 1527 1528 1529 1530 1530 1531 1532 1533 1534 1535 1536 1538 1539 1541 1543 1544 1545 1546 1547 1548 1550 1545 1539 1542 1545 1546 1547 1549 1550 1552 1553 1555 1556 1557 1558 1554 1552 1554 1554 1555 1555 1552 1553 1554 1550 1546 1546 1548 1549 1549 1550 1550 1550 1551 1551 1551 1551 1551 1551 1550 1550
1509 1510 1512 1514 1514 1516 1517 1518 1519 1520 1522 1523 1524 1525 1526 1527 1528 1528 1528 1526 1523 1523 1523 1523 1523 1523 1523 1525 1526 1527 1528 1529 1530 1531 1531 1533 1534 1535 1536 1538 1539 1541 1544 1545 1546 1549 1552 1548 1540 1539 1544 1545 1547 1549 1550 1551 1552 1553 1556 1557 1557 1557 1556 1553 1554 1555 1555 1554 1551 1553 1553 1545 1543 1546 1548 1548 1548 1548 1548 1548 1549 1549 1549 1550 1550 1549 1550 1550
1507 1507 1510 1511 1512 1514 1515 1516 1517 1518 1520 1521 1522 1523 1524 1526 1527 1527 1528 1527 1522 1519 1520 1519 1519 1518 1520 1521 1522 1525 1526 1526 1527 1528 1529 1531 1532 1533 1534 1536 1538 1541 1544 1543 1543 1548 1550 1543 1537 1540 1543 1544 1548 1550 1550 1552 1553 1554 1555 1556 1555 1556 1555 1551 1552 1555 1555 1554 1552 1554 1553 1544 1540 1544 1546 1546 1546 1546 1547 1547 1547 1548 1547 1547 1548 1548 1548 1549
1503 1506 1508 1508 1511 1512 1513 1515 1515 1516 1518 1519 1520 1522 1523 1525 1526 1527 1527 1526 1521 1516 1515 1515 1515 1515 1515 1517 1519 1521 1522 1522 1523 1524 1526 1528 1529 1532 1532 1533 1538 1540 1540 1540 1541 1542 1541 1538 1537 1540 1542 1543 1546 1550 1551 1551 1553 1553 1553 1553 1551 1552 1552 1550 1552 1554 1553 1555 1554 1554 1553 1543 1537 1539 1541 1544 1546 1545 1546 1546 1545 1545 1546 1545 1545 1546 1547 1547
1501 1504 1505 1507 1509 1510 1512 1514 1512 1514 1515 1516 1519 1521 1523 1524 1525 1527 1527 1527 1521 1513 1511 1511 1511 1511 1511 1514 1516 1517 1519 1519 1520 1521 1522 1524 1526 1528 1530 1531 1534 1536 1538 1540 1543 1541 1538 1537 1538 1540 1542 1543 1544 1547 1549 1549 1551 1551 1548 1547 1546 1546 1548 1550 1552 1553 1553 1553 1552 1553 1551 1540 1534 1535 1537 1542 1545 1545 1545 1545 1545 1544 1544 1545 1545 1545 1546 1546
1499 1502 1504 1505 1506 1508 1512 1511 1510 1513 1513 1515 1519 1520 1522 1523 1525 1527 1526 1531 1524 1510 1508 1508 1507 1507 1507 1510 1512 1515 1519 1517 1516 1518 1520 1522 1523 1525 1528 1530 1531 1533 1536 1540 1543 1541 1537 1537 1537 1538 1541 1542 1544 1545 1546 1547 1550 1550 1544 1543 1545 1546 1548 1551 1551 1552 1552 1550 1552 1554 1550 1542 1535 1529 1533 1543 1544 1544 1544 1543 1543 1544 1543 1544 1544 1545 1546 1546
1496 1500 1502 1503 1504 1506 1508 1508 1509 1510 1511 1515 1516 1519 1522 1522 1526 1525 1527 1537 1523 1500 1500 1504 1503 1503 1503 1506 1508 1512 1516 1512 1512 1516 1517 1519 1522 1523 1525 1528 1530 1531 1533 1538 1541 1537 1534 1536 1538 1538 1539 1542 1543 1542 1543 1545 1548 1547 1543 1543 1545 1546 1548 1550 1550 1550 1550 1549 1552 1554 1550 1550 1545 1532 1534 1544 1541 1539 1541 1541 1541 1542 1542 1543 1543 1544 1545 1546
1494 1497 1500 1501 1502 1503 1505 1506 1507 1508 1511 1514 1515 1519 1520 1521 1526 1523 1530 1540 1514 1490 1495 1499 1500 1501 1502 1506 1507 1508 1510 1508 1510 1514 1515 1517 1520 1521 1523 1525 1527 1529 1530 1533 1535 1533 1532 1534 1535 1536 1538 1540 1539 1538 1540 1542 1543 1544 1546 1547 1546 1546 1548 1549 1551 1552 1555 1554 1550 1550 1552 1552 1546 1534 1536 1543 1537 1530 1531 1535 1538 1538 1539 1541 1541 1543 1544 1545
1492 1495 1497 1499 1500 1502 1503 1504 1506 1508 1511 1513 1515 1518 1518 1523 1524 1522 1538 1537 1501 1486 1496 1496 1498 1501 1501 1505 1507 1506 1508 1508 1509 1512 1514 1517 1519 1520 1522 1523 1525 1528 1530 1530 1530 1531 1532 1532 1532 1534 1535 1536 1536 1538 1539 1539 1539 1543 1547 1548 1548 1551 1553 1553 1554 1553 1557 1558 1548 1545 1548 1547 1541 1532 1533 1539 1532 1522 1523 1531 1535 1535 1537 1539 1539 1542 1543 1544
1490 1492 1495 1497 1498 1499 1501 1502 1504 1507 1510 1513 1514 1516 1518 1521 1522 1530 1544 1523 1488 1489 1497 1495 1498 1501 1501 1505 1507 1507 1507 1508 1509 1512 1515 1517 1518 1520 1521 1523 1525 1528 1530 1531 1530 1531 1532 1532 1532 1532 1531 1532 1535 1539 1541 1540 1541 1543 1545 1546 1548 1551 1552 1554 1556 1555 1557 1555 1545 1543 1544 1543 1541 1530 1526 1529 1524 1519 1522 1528 1532 1533 1534 1536 1537 1540 1541 1542
1486 1489 1492 1494 1494 1496 1498 1499 1501 1505 1509 1511 1513 1516 1518 1520 1524 1533 1528 1498 1483 1492 1495 1496 1500 1499 1500 1501 1503 1506 1507 1509 1510 1511 1514 1516 1518 1520 1520 1523 1526 1530 1533 1531 1531 1532 1532 1532 1531 1530 1529 1531 1534 1538 1542 1542 1543 1543 1541 1543 1547 1550 1552 1554 1556 1557 1556 1547 1541 1549 1550 1546 1542 1528 1519 1521 1521 1521 1521 1521 1526 1529 1530 1532 1535 1537 1539 1541
1483 1486 1488 1490 1492 1494 1495 1496 1499 1505 1508 1508 1512 1513 1515 1524 1527 1518 1502 1486 1486 1490 1489 1494 1498 1498 1499 1499 1500 1505 1506 1509 1510 1510 1512 1515 1517 1517 1517 1518 1520 1527 1532 1531 1530 1531 1530 1529 1529 1528 1528 1529 1530 1536 1543 1544 1544 1543 1541 1543 1547 1551 1555 1554 1554 1558 1555 1544 1545 1553 1550 1544 1538 1522 1514 1516 1518 1521 1521 1520 1522 1524 1526 1529 1533 1536 1538 1540
1479 1483 1485 1486 1488 1490 1492 1495 1499 1504 1506 1506 1511 1510 1514 1524 1514 1494 1489 1486 1484 1485 1486 1490 1494 1496 1499 1499 1501 1504 1504 1507 1509 1510 1512 1514 1516 1517 1516 1516 1516 1517 1521 1527 1531 1531 1528 1526 1527 1527 1526 1526 1525 1529 1537 1540 1542 1542 1539 1540 1544 1551 1555 1552 1554 1558 1550 1542 1548 1555 1548 1540 1532 1518 1513 1515 1516 1520 1521 1522 1523 1523 1526 1529 1531 1535 1536 1538
1476 1480 1482 1483 1485 1487 1490 1495 1498 1501 1504 1505 1508 1509 1514 1515 1493 1478 1484 1484 1480 1485 1488 1489 1494 1498 1498 1498 1500 1501 1503 1506 1508 1509 1512 1514 1517 1517 1515 1515 1516 1514 1517 1526 1530 1529 1527 1521 1519 1521 1520 1519 1520 1521 1525 1529 1537 1539 1537 1537 1539 1540 1541 1541 1542 1542 1537 1538 1549 1554 1543 1527 1517 1515 1519 1520 1520 1522 1522 1522 1524 1524 1527 1529 1531 1534 1535 1536
1473 1475 1478 1479 1481 1483 1487 1492 1495 1499 1502 1501 1503 1508 1508 1496 1479 1474 1478 1477 1480 1486 1488 1490 1494 1497 1499 1499 1500 1499 1498 1502 1507 1509 1511 1512 1512 1512 1510 1510 1513 1512 1513 1520 1523 1527 1527 1516 1512 1516 1516 1515 1517 1519 1521 1525 1532 1538 1539 1538 1536 1531 1530 1538 1546 1544 1541 1542 1545 1546 1534 1519 1514 1518 1523 1523 1521 1522 1522 1522 1524 1524 1526 1528 1530 1531 1532 1534
1469 1471 1473 1472 1473 1477 1482 1487 1491 1495 1496 1497 1500 1501 1490 1474 1469 1471 1469 1469 1476 1481 1487 1493 1493 1496 1500 1499 1500 1500 1496 1498 1505 1507 1508 1511 1509 1507 1507 1503 1505 1507 1505 1508 1513 1520 1524 1516 1514 1517 1516 1516 1517 1517 1520 1520 1524 1535 1538 1533 1531 1530 1528 1536 1549 1555 1554 1544 1534 1533 1526 1519 1519 1517 1519 1522 1520 1520 1523 1523 1523 1524 1525 1526 1527 1528 1530 1532
1463 1465 1466 1464 1466 1471 1477 1482 1486 1489 1491 1492 1491 1485 1472 1463 1463 1465 1464 1465 1470 1473 1481 1486 1485 1488 1493 1494 1496 1498 1496 1497 1503 1503 1505 1508 1502 1498 1501 1498 1497 1500 1497 1499 1503 1507 1510 1511 1514 1517 1515 1517 1518 1517 1519 1519 1519 1529 1532 1525 1527 1533 1531 1532 1538 1546 1553 1544 1530 1527 1522 1516 1516 1513 1516 1522 1518 1516 1520 1522 1523 1523 1524 1523 1523 1525 1527 1529
1457 1461 1460 1457 1460 1466 1472 1478 1481 1483 1485 1484 1481 1472 1463 1460 1460 1460 1462 1464 1466 1470 1474 1475 1475 1477 1482 1487 1489 1493 1494 1494 1500 1501 1500 1502 1493 1485 1491 1493 1491 1493 1493 1495 1499 1500 1502 1506 1513 1519 1517 1518 1519 1517 1519 1521 1520 1521 1522 1521 1524 1527 1529 1533 1534 1535 1541 1539 1528 1521 1520 1516 1512 1509 1513 1516 1512 1510 1516 1521 1522 1520 1520 1519 1520 1522 1524 1527
1452 1456 1450 1447 1454 1461 1467 1474 1476 1478 1478 1476 1474 1465 1456 1456 1456 1457 1459 1461 1463 1467 1467 1466 1468 1472 1476 1479 1481 1487 1490 1490 1495 1497 1492 1493 1488 1480 1482 1484 1484 1489 1491 1493 1496 1498 1501 1503 1509 1518 1519 1518 1519 1517 1517 1520 1522 1521 1521 1522 1522 1521 1522 1527 1530 1528 1529 1532 1525 1517 1513 1509 1504 1503 1503 1503 1504 1507 1512 1517 1517 1514 1514 1514 1515 1518 1520 1523
1445 1447 1438 1437 1449 1456 1464 1472 1471 1470 1468 1465 1463 1455 1449 1452 1455 1454 1455 1457 1459 1461 1461 1460 1463 1467 1472 1475 1476 1480 1484 1486 1490 1490 1484 1483 1482 1478 1478 1477 1480 1486 1490 1493 1495 1497 1501 1501 1505 1516 1521 1518 1514 1511 1508 1508 1514 1517 1520 1522 1522 1522 1523 1524 1525 1526 1524 1524 1524 1519 1512 1503 1500 1502 1499 1497 1501 1505 1507 1509 1509 1509 1511 1511 1513 1515 1517 1519
1438 1439 1429 1431 1443 1450 1461 1469 1464 1460 1459 1456 1453 1448 1447 1450 1451 1452 1453 1454 1455 1455 1456 1457 1458 1460 1465 1470 1472 1474 1478 1483 1485 1484 1480 1478 1475 1472 1471 1471 1475 1482 1489 1495 1495 1493 1497 1499 1503 1513 1518 1513 1506 1505 1505 1504 1504 1506 1508 1511 1512 1514 1519 1522 1523 1525 1524 1521 1518 1520 1512 1498 1498 1506 1503 1501 1504 1506 1506 1506 1506 1507 1508 1509 1511 1513 1515 1517
1429 1428 1422 1426 1436 1444 1455 1458 1452 1452 1452 1446 1441 1442 1445 1446 1446 1449 1450 1451 1453 1453 1454 1455 1455 1457 1459 1461 1465 1468 1472 1477 1480 1479 1474 1470 1468 1465 1465 1467 1471 1475 1480 1486 1487 1486 1490 1496 1500 1506 1510 1507 1505 1507 1508 1507 1504 1504 1504 1504 1505 1505 1507 1511 1514 1518 1524 1522 1520 1524 1516 1499 1500 1508 1506 1504 1505 1505 1506 1506 1506 1507 1507 1509 1511 1512 1516 1518
1419 1420 1421 1425 1429 1436 1445 1448 1446 1447 1442 1436 1435 1438 1441 1442 1443 1445 1446 1447 1449 1450 1452 1453 1452 1454 1455 1456 1460 1464 1465 1468 1471 1470 1467 1466 1465 1463 1464 1466 1468 1472 1474 1478 1481 1484 1487 1492 1496 1502 1505 1506 1507 1507 1508 1507 1505 1503 1503 1503 1504 1503 1501 1503 1508 1511 1515 1515 1517 1525 1516 1498 1501 1509 1505 1504 1505 1503 1505 1505 1505 1507 1507 1508 1511 1512 1516 1518
1414 1417 1420 1422 1424 1428 1433 1435 1435 1436 1433 1432 1435 1437 1438 1438 1438 1439 1441 1442 1444 1446 1448 1449 1449 1450 1451 1453 1456 1458 1459 1460 1461 1463 1463 1463 1462 1462 1463 1465 1466 1470 1471 1472 1474 1478 1482 1486 1492 1500 1507 1508 1509 1508 1506 1507 1505 1501 1500 1502 1502 1501 1504 1508 1511 1513 1513 1509 1510 1514 1504 1492 1499 1507 1504 1503 1504 1502 1503 1503 1504 1505 1506 1507 1510 1511 1513 1515
1412 1415 1416 1418 1420 1420 1420 1419 1421 1424 1427 1430 1432 1432 1434 1435 1433 1433 1436 1438 1439 1441 1443 1444 1445 1446 1449 1452 1453 1454 1454 1454 1456 1460 1461 1461 1461 1462 1463 1464 1465 1467 1468 1469 1469 1472 1476 1479 1482 1488 1495 1497 1497 1496 1494 1496 1500 1500 1500 1501 1500 1500 1503 1504 1507 1511 1511 1508 1506 1503 1495 1491 1496 1502 1501 1500 1501 1500 1500 1502 1502 1503 1505 1506 1508 1509 1510 1512
1410 1411 1413 1416 1417 1415 1414 1415 1418 1421 1423 1426 1427 1426 1428 1429 1428 1430 1433 1435 1436 1437 1439 1441 1443 1445 1448 1450 1451 1453 1453 1454 1456 1458 1458 1459 1461 1462 1462 1462 1464 1465 1466 1468 1469 1471 1475 1476 1474 1472 1474 1476 1476 1477 1480 1483 1488 1493 1494 1495 1496 1497 1498 1498 1502 1504 1504 1507 1504 1494 1492 1494 1492 1495 1498 1497 1497 1498 1498 1500 1500 1501 1503 1504 1506 1507 1508 1510
1407 1407 1408 1410 1412 1412 1413 1413 1415 1415 1416 1419 1421 1420 1421 1423 1426 1429 1431 1430 1430 1434 1437 1440 1440 1442 1443 1445 1449 1451 1452 1454 1456 1456 1456 1457 1459 1462 1463 1462 1463 1464 1464 1466 1468 1471 1474 1474 1472 1470 1470 1471 1470 1473 1478 1479 1479 1482 1486 1490 1493 1496 1498 1498 1497 1494 1496 1504 1499 1488 1492 1495 1488 1490 1495 1493 1493 1496 1497 1498 1499 1500 1502 1503 1504 1505 1506 1507
1405 1404 1404 1404 1405 1406 1406 1406 1407 1408 1410 1415 1416 1416 1418 1421 1423 1425 1426 1426 1428 1430 1435 1438 1436 1434 1435 1439 1444 1447 1450 1453 1454 1452 1453 1456 1459 1462 1464 1464 1464 1463 1463 1467 1468 1470 1473 1472 1471 1471 1472 1473 1474 1477 1478 1478 1478 1479 1481 1483 1486 1491 1495 1495 1493 1491 1492 1494 1488 1484 1490 1490 1483 1487 1491 1489 1491 1494 1495 1496 1497 1498 1500 1500 1502 1503 1503 1505
1403 1403 1403 1403 1403 1402 1401 1401 1403 1406 1408 1411 1413 1413 1415 1417 1417 1418 1421 1425 1427 1426 1427 1430 1428 1428 1431 1434 1438 1442 1444 1446 1446 1447 1450 1454 1457 1459 1462 1463 1464 1464 1464 1466 1468 1469 1471 1471 1470 1471 1471 1472 1476 1479 1479 1478 1478 1480 1479 1478 1480 1484 1490 1491 1489 1489 1491 1488 1483 1485 1489 1485 1483 1487 1489 1488 1491 1492 1493 1495 1495 1496 1498 1498 1500 1501 1502 1503
1399 1400 1402 1403 1403 1403 1402 1401 1403 1405 1405 1406 1408 1408 1409 1411 1412 1413 1416 1419 1421 1422 1422 1421 1420 1423 1428 1431 1433 1434 1432 1431 1434 1439 1443 1448 1452 1454 1456 1457 1460 1464 1465 1466 1468 1469 1470 1471 1471 1471 1473 1473 1475 1478 1479 1478 1478 1478 1476 1476 1480 1485 1490 1492 1490 1491 1495 1492 1488 1490 1490 1485 1484 1486 1487 1488 1490 1491 1492 1493 1494 1496 1497 1497 1499 1500 1501 1502
1394 1396 1399 1402 1403 1403 1403 1402 1402 1403 1403 1403 1403 1403 1404 1405 1406 1409 1412 1412 1412 1416 1417 1415 1416 1421 1425 1428 1427 1425 1423 1425 1430 1433 1435 1439 1443 1446 1449 1451 1455 1461 1464 1466 1466 1467 1470 1473 1473 1473 1472 1471 1474 1479 1479 1480 1485 1483 1474 1474 1482 1484 1483 1486 1488 1488 1489 1487 1488 1492 1489 1482 1482 1485 1487 1488 1489 1490 1491 1492 1493 1495 1495 1496 1497 1498 1499 1500
1393 1395 1397 1400 1402 1403 1403 1403 1403 1403 1402 1401 1401 1402 1403 1403 1403 1406 1410 1412 1411 1412 1414 1413 1416 1421 1423 1424 1421 1419 1421 1426 1430 1432 1435 1437 1439 1442 1445 1448 1450 1454 1460 1464 1465 1466 1468 1469 1471 1473 1470 1472 1480 1482 1480 1485 1487 1475 1462 1464 1473 1475 1474 1480 1484 1482 1480 1479 1482 1484 1478 1475 1480 1484 1485 1487 1488 1489 1489 1490 1491 1492 1493 1495 1495 1495 1497 1497